CST,Max TemperatureF,Mean TemperatureF,Min TemperatureF,Max Dew PointF,MeanDew PointF,Min DewpointF,Max Humidity, Mean Humidity, Min Humidity, Max Sea Level PressureIn, Mean Sea Level PressureIn, Min Sea Level PressureIn, Max VisibilityMiles, Mean VisibilityMiles, Min VisibilityMiles, Max Wind SpeedMPH, Mean Wind SpeedMPH, Max Gust SpeedMPH,PrecipitationIn, CloudCover, Events, WindDirDegrees
2012-12-1,77,59,40,59,51,40,100,72,43,30.27,30.22,30.17,10,10,5,13,6,17,0.00,1,,151
2012-12-2,81,69,56,61,58,56,97,71,45,30.28,30.22,30.17,10,9,4,14,7,21,0.00,1,,173
2012-12-3,79,65,51,62,57,52,100,77,54,30.23,30.17,30.12,10,7,0,18,9,24,0.00,3,Fog,153
2012-12-4,80,70,59,65,61,57,93,75,56,30.24,30.18,30.12,10,9,1,24,8,32,0.88,6,Rain-Thunderstorm,148
2012-12-5,63,60,57,58,57,55,100,92,84,30.25,30.17,30.08,10,8,2,13,6,15,0.01,7,Rain,12
2012-12-6,70,62,53,63,58,54,100,85,70,30.08,30.01,29.94,10,4,0,8,2,16,0.00,6,Fog-Rain,135
2012-12-7,74,62,50,63,58,51,100,75,49,30.00,29.95,29.89,10,8,2,10,4,15,0.00,5,,180
2012-12-8,73,60,47,61,57,48,100,82,64,30.00,29.95,29.89,10,7,1,12,5,15,0.03,4,Rain,158
2012-12-9,76,66,55,66,63,55,100,87,73,30.00,29.92,29.85,10,9,2,21,7,30,0.19,5,Rain-Thunderstorm,178
2012-12-10,64,51,37,63,52,31,100,83,65,30.11,29.88,29.75,10,6,1,20,9,30,2.51,7,Rain-Thunderstorm,294
2012-12-11,49,40,31,33,31,28,85,70,54,30.27,30.19,30.11,10,10,10,14,8,18,0.00,0,,10
2012-12-12,56,42,27,32,28,18,92,58,24,30.38,30.33,30.27,10,10,10,13,6,20,0.00,0,,11
2012-12-13,63,43,23,34,28,22,100,63,25,30.42,30.36,30.30,10,10,10,8,2,9,0.00,0,,10
2012-12-14,67,47,26,50,37,24,100,67,34,30.34,30.23,30.09,10,10,9,14,5,17,T,3,,149
2012-12-15,75,65,55,62,57,50,87,76,64,30.08,29.99,29.92,10,10,10,17,11,24,0.00,6,,166
2012-12-16,68,64,59,64,61,57,100,89,78,29.91,29.86,29.76,10,7,0,20,7,25,2.16,8,Fog-Rain-Thunderstorm,189
2012-12-17,71,57,42,61,54,40,100,69,37,29.94,29.82,29.75,10,8,2,17,6,24,0.01,4,Rain,234
2012-12-18,72,54,35,46,41,35,100,65,29,30.03,29.96,29.92,10,8,1,14,6,20,0.00,0,,177
2012-12-19,78,63,48,64,52,44,93,65,36,30.02,29.91,29.77,10,10,10,22,11,31,T,2,,160
2012-12-20,73,57,40,68,40,19,90,63,35,30.33,29.99,29.72,10,10,4,35,14,47,0.04,3,Rain,276
2012-12-21,54,40,26,29,21,17,92,59,26,30.49,30.40,30.34,10,10,10,13,5,20,0.00,0,,312
2012-12-22,64,44,23,34,28,22,100,62,23,30.43,30.34,30.22,10,10,10,10,4,14,0.00,0,,187
2012-12-23,64,55,45,57,49,32,84,69,54,30.20,30.05,29.91,10,10,9,16,8,22,0.02,7,Rain,166
2012-12-24,68,59,49,61,53,41,97,70,43,29.97,29.90,29.83,10,10,9,14,6,17,0.00,2,,271
2012-12-25,60,49,37,57,50,32,100,93,86,29.92,29.69,29.43,10,6,1,37,12,44,2.03,8,Rain-Thunderstorm,49
2012-12-26,39,36,32,32,30,28,82,76,70,30.24,30.10,29.84,10,10,9,23,11,31,0.00,7,,318
2012-12-27,46,38,29,36,31,26,92,75,58,30.23,30.15,30.03,10,10,10,13,5,15,0.00,4,,90
2012-12-28,57,49,40,55,44,36,100,83,65,30.07,29.89,29.72,10,7,1,21,9,29,0.52,8,Rain,337
2012-12-29,45,38,30,37,28,23,92,69,45,30.49,30.29,30.09,10,10,10,18,10,25,0.00,4,,322
2012-12-30,50,35,20,33,26,21,96,66,36,30.59,30.48,30.38,10,9,4,8,3,12,0.00,0,,73
2012-12-31,60,47,33,54,40,29,89,73,56,30.36,30.21,30.00,10,10,10,17,8,23,T,6,,148